Time,TemperatureF,DewpointF,PressureIn,WindDirection,WindDirectionDegrees,WindSpeedMPH,WindSpeedGustMPH,Humidity,HourlyPrecipIn,Conditions,Clouds,dailyrainin,SoftwareType,DateUTC
2013-04-13 00:00:00,33.1,28.4,29.75,WSW,247,5.1,10.5,83,0.00,,,0.02,WUHU21623XXSP,2013-04-13 05:00:00,
2013-04-13 00:05:00,33.1,28.4,29.75,West,270,5.4,10.5,83,0.00,,,0.00,WUHU21623XXSP,2013-04-13 05:05:00,
2013-04-13 00:10:00,32.9,28.3,29.75,West,270,10.5,10.5,83,0.00,,,0.00,WUHU21623XXSP,2013-04-13 05:10:00,
2013-04-13 00:15:00,32.9,28.3,29.75,West,270,1.1,10.5,83,0.00,,,0.00,WUHU21623XXSP,2013-04-13 05:15:00,
2013-04-13 00:20:00,32.9,28.3,29.75,West,270,2.5,7.6,83,0.00,,,0.00,WUHU21623XXSP,2013-04-13 05:20:00,
2013-04-13 00:25:00,32.9,28.6,29.75,West,270,2.7,6.5,84,0.00,,,0.00,WUHU21623XXSP,2013-04-13 05:25:00,
2013-04-13 00:30:00,32.9,28.6,29.75,West,270,6.5,6.5,84,0.00,,,0.00,WUHU21623XXSP,2013-04-13 05:30:00,
2013-04-13 00:35:00,32.9,28.6,29.75,West,270,8.9,8.9,84,0.00,,,0.00,WUHU21623XXSP,2013-04-13 05:35:00,
2013-04-13 00:40:00,32.7,28.4,29.75,West,270,6.5,8.9,84,0.00,,,0.00,WUHU21623XXSP,2013-04-13 05:40:00,
2013-04-13 00:45:00,32.7,28.4,29.75,West,270,5.1,6.5,84,0.00,,,0.00,WUHU21623XXSP,2013-04-13 05:45:00,
2013-04-13 00:50:00,32.9,28.6,29.76,West,270,2.2,5.1,84,0.00,,,0.00,WUHU21623XXSP,2013-04-13 05:50:00,
2013-04-13 00:55:00,32.7,28.4,29.76,West,270,7.4,7.4,84,0.00,,,0.00,WUHU21623XXSP,2013-04-13 05:55:00,
2013-04-13 01:00:00,32.7,28.4,29.75,WSW,247,6.0,8.3,84,0.00,,,0.00,WUHU21623XXSP,2013-04-13 06:00:00,
2013-04-13 01:05:00,32.7,28.4,29.76,WSW,247,7.4,8.3,84,0.00,,,0.00,WUHU21623XXSP,2013-04-13 06:05:00,
2013-04-13 01:10:00,32.7,28.4,29.76,West,270,4.5,7.4,84,0.00,,,0.00,WUHU21623XXSP,2013-04-13 06:10:00,
2013-04-13 01:15:00,32.7,28.4,29.76,West,270,7.6,7.6,84,0.00,,,0.00,WUHU21623XXSP,2013-04-13 06:15:00,
2013-04-13 01:20:00,32.7,28.4,29.76,West,270,5.8,7.6,84,0.00,,,0.00,WUHU21623XXSP,2013-04-13 06:20:00,
2013-04-13 01:25:00,32.7,28.4,29.76,WNW,292,2.9,6.7,84,0.00,,,0.00,WUHU21623XXSP,2013-04-13 06:25:00,
2013-04-13 01:30:00,32.7,28.4,29.76,WSW,247,5.4,9.2,84,0.00,,,0.00,WUHU21623XXSP,2013-04-13 06:30:00,
2013-04-13 01:35:00,32.7,28.4,29.76,WNW,292,2.0,9.2,84,0.00,,,0.00,WUHU21623XXSP,2013-04-13 06:35:00,
2013-04-13 01:40:00,32.7,28.4,29.76,WSW,247,5.8,13.9,84,0.00,,,0.00,WUHU21623XXSP,2013-04-13 06:40:00,
2013-04-13 01:46:00,32.7,28.4,29.76,WSW,247,3.6,13.9,84,0.00,,,0.00,WUHU21623XXSP,2013-04-13 06:46:00,
2013-04-13 01:51:00,32.5,28.4,29.76,WSW,247,2.5,3.6,84,0.00,,,0.00,WUHU21623XXSP,2013-04-13 06:51:00,
2013-04-13 01:57:00,32.5,28.2,29.75,WSW,247,5.4,5.4,84,0.00,,,0.00,WUHU21623XXSP,2013-04-13 06:57:00,
2013-04-13 02:02:00,32.5,28.2,29.75,West,270,8.5,8.5,84,0.00,,,0.00,WUHU21623XXSP,2013-04-13 07:02:00,
2013-04-13 02:07:00,32.7,28.4,29.75,West,270,0.9,8.5,84,0.00,,,0.00,WUHU21623XXSP,2013-04-13 07:07:00,
2013-04-13 02:13:00,32.7,28.4,29.75,WSW,247,12.1,12.1,84,0.00,,,0.00,WUHU21623XXSP,2013-04-13 07:13:00,
2013-04-13 02:18:00,32.5,28.2,29.76,WSW,247,6.7,12.1,84,0.00,,,0.00,WUHU21623XXSP,2013-04-13 07:18:00,
2013-04-13 02:23:00,32.5,28.2,29.75,West,270,6.7,6.9,84,0.00,,,0.00,WUHU21623XXSP,2013-04-13 07:23:00,
2013-04-13 02:28:00,32.5,28.2,29.75,West,270,4.0,7.8,85,0.00,,,0.00,WUHU21623XXSP,2013-04-13 07:28:00,
2013-04-13 02:33:00,32.5,28.5,29.75,West,270,4.0,7.8,85,0.00,,,0.00,WUHU21623XXSP,2013-04-13 07:33:00,
2013-04-13 02:38:00,32.5,28.5,29.75,WSW,247,4.7,12.3,85,0.00,,,0.00,WUHU21623XXSP,2013-04-13 07:38:00,
2013-04-13 02:43:00,32.5,28.5,29.75,WSW,247,8.5,12.3,85,0.00,,,0.00,WUHU21623XXSP,2013-04-13 07:43:00,
2013-04-13 02:48:00,32.5,28.5,29.75,WSW,247,8.5,9.2,85,0.00,,,0.00,WUHU21623XXSP,2013-04-13 07:48:00,
2013-04-13 02:53:00,32.5,28.5,29.75,WSW,247,10.3,10.3,85,0.00,,,0.00,WUHU21623XXSP,2013-04-13 07:53:00,
2013-04-13 02:58:00,32.5,28.5,29.75,West,270,6.9,10.3,85,0.00,,,0.00,WUHU21623XXSP,2013-04-13 07:58:00,
2013-04-13 03:03:00,32.5,28.5,29.75,West,270,10.3,10.3,85,0.00,,,0.00,WUHU21623XXSP,2013-04-13 08:03:00,
2013-04-13 03:08:00,32.5,28.5,29.75,West,270,5.6,10.5,85,0.00,,,0.00,WUHU21623XXSP,2013-04-13 08:08:00,
2013-04-13 03:13:00,32.5,28.5,29.74,WNW,292,4.0,10.5,85,0.00,,,0.00,WUHU21623XXSP,2013-04-13 08:13:00,
2013-04-13 03:18:00,32.4,28.4,29.75,West,270,4.7,8.5,85,0.00,,,0.00,WUHU21623XXSP,2013-04-13 08:18:00,
2013-04-13 03:23:00,32.4,28.4,29.74,WSW,247,7.6,7.6,85,0.00,,,0.00,WUHU21623XXSP,2013-04-13 08:23:00,
2013-04-13 03:28:00,32.4,28.4,29.74,West,270,4.7,7.6,85,0.00,,,0.00,WUHU21623XXSP,2013-04-13 08:28:00,
2013-04-13 03:34:00,32.4,28.4,29.75,WSW,247,2.7,7.6,85,0.00,,,0.00,WUHU21623XXSP,2013-04-13 08:34:00,
2013-04-13 03:39:00,32.2,28.2,29.75,West,270,11.9,11.9,85,0.00,,,0.00,WUHU21623XXSP,2013-04-13 08:39:00,
2013-04-13 03:44:00,32.2,28.2,29.75,West,270,4.5,11.9,85,0.00,,,0.00,WUHU21623XXSP,2013-04-13 08:44:00,
2013-04-13 03:49:00,32.2,28.5,29.75,West,270,4.9,11.9,86,0.00,,,0.00,WUHU21623XXSP,2013-04-13 08:49:00,
2013-04-13 03:54:00,32.2,28.5,29.75,SW,225,10.1,10.1,86,0.00,,,0.00,WUHU21623XXSP,2013-04-13 08:54:00,
2013-04-13 03:59:00,32.2,28.2,29.75,West,270,3.6,11.6,85,0.00,,,0.00,WUHU21623XXSP,2013-04-13 08:59:00,
2013-04-13 04:04:00,32.0,28.5,29.75,WSW,247,4.9,11.6,86,0.00,,,0.00,WUHU21623XXSP,2013-04-13 09:04:00,
2013-04-13 04:09:00,31.8,28.1,29.75,West,270,10.7,10.7,86,0.00,,,0.00,WUHU21623XXSP,2013-04-13 09:09:00,
2013-04-13 04:14:00,31.8,28.1,29.74,WNW,292,6.7,10.7,86,0.00,,,0.00,WUHU21623XXSP,2013-04-13 09:14:00,
2013-04-13 04:19:00,31.8,28.1,29.75,WNW,292,5.8,10.1,86,0.00,,,0.00,WUHU21623XXSP,2013-04-13 09:19:00,
2013-04-13 04:24:00,31.8,28.1,29.75,West,270,4.5,10.1,86,0.00,,,0.00,WUHU21623XXSP,2013-04-13 09:24:00,
2013-04-13 04:29:00,31.8,28.1,29.74,West,270,5.6,6.5,86,0.00,,,0.00,WUHU21623XXSP,2013-04-13 09:29:00,
2013-04-13 04:34:00,31.8,28.1,29.75,WSW,247,4.9,5.8,86,0.00,,,0.00,WUHU21623XXSP,2013-04-13 09:34:00,
2013-04-13 04:39:00,31.8,28.1,29.75,West,270,10.5,13.0,86,0.00,,,0.00,WUHU21623XXSP,2013-04-13 09:39:00,
2013-04-13 04:44:00,31.8,28.1,29.75,WNW,292,8.5,13.0,86,0.00,,,0.00,WUHU21623XXSP,2013-04-13 09:44:00,
2013-04-13 04:49:00,31.8,28.1,29.75,West,270,6.9,8.7,86,0.00,,,0.00,WUHU21623XXSP,2013-04-13 09:49:00,
2013-04-13 04:55:00,31.6,28.0,29.75,West,270,7.8,8.7,86,0.00,,,0.00,WUHU21623XXSP,2013-04-13 09:55:00,
2013-04-13 05:00:00,31.6,28.0,29.75,West,270,3.8,7.8,86,0.00,,,0.00,WUHU21623XXSP,2013-04-13 10:00:00,
2013-04-13 05:05:00,31.6,28.0,29.75,West,270,5.1,5.1,86,0.00,,,0.00,WUHU21623XXSP,2013-04-13 10:05:00,
2013-04-13 05:10:00,31.6,28.0,29.75,West,270,5.6,5.6,86,0.00,,,0.00,WUHU21623XXSP,2013-04-13 10:10:00,
2013-04-13 05:15:00,31.6,28.0,29.75,WSW,247,8.3,12.5,86,0.00,,,0.00,WUHU21623XXSP,2013-04-13 10:15:00,
2013-04-13 05:20:00,31.6,28.0,29.76,WSW,247,5.8,12.5,86,0.00,,,0.00,WUHU21623XXSP,2013-04-13 10:20:00,
2013-04-13 05:25:00,31.6,28.3,29.75,West,270,8.3,9.2,87,0.00,,,0.00,WUHU21623XXSP,2013-04-13 10:25:00,
2013-04-13 05:30:00,31.6,28.3,29.76,West,270,5.8,8.3,87,0.00,,,0.00,WUHU21623XXSP,2013-04-13 10:30:00,
2013-04-13 05:35:00,31.6,28.3,29.75,West,270,14.3,14.3,87,0.00,,,0.00,WUHU21623XXSP,2013-04-13 10:35:00,
2013-04-13 05:40:00,31.6,28.0,29.75,WSW,247,9.6,14.3,86,0.00,,,0.00,WUHU21623XXSP,2013-04-13 10:40:00,
2013-04-13 05:45:00,31.6,28.3,29.75,WNW,292,2.9,13.9,87,0.00,,,0.00,WUHU21623XXSP,2013-04-13 10:45:00,
2013-04-13 05:50:00,31.6,28.3,29.75,West,270,5.4,13.9,87,0.00,,,0.00,WUHU21623XXSP,2013-04-13 10:50:00,
2013-04-13 05:55:00,31.6,28.3,29.75,WSW,247,4.7,8.1,87,0.00,,,0.00,WUHU21623XXSP,2013-04-13 10:55:00,
2013-04-13 06:00:00,31.6,28.3,29.75,WNW,292,4.3,8.1,87,0.00,,,0.00,WUHU21623XXSP,2013-04-13 11:00:00,
2013-04-13 06:05:00,31.6,28.3,29.75,WNW,292,4.7,4.7,87,0.00,,,0.00,WUHU21623XXSP,2013-04-13 11:05:00,
2013-04-13 06:10:00,31.6,28.3,29.75,West,270,5.6,5.6,87,0.00,,,0.00,WUHU21623XXSP,2013-04-13 11:10:00,
2013-04-13 06:15:00,31.6,28.3,29.76,West,270,5.8,5.8,87,0.00,,,0.00,WUHU21623XXSP,2013-04-13 11:15:00,
2013-04-13 06:21:00,31.6,28.3,29.75,West,270,3.1,5.8,87,0.00,,,0.00,WUHU21623XXSP,2013-04-13 11:21:00,
2013-04-13 06:26:00,31.6,28.3,29.76,WSW,247,3.4,6.0,87,0.00,,,0.00,WUHU21623XXSP,2013-04-13 11:26:00,
2013-04-13 06:31:00,31.6,28.3,29.76,West,270,8.7,8.7,87,0.00,,,0.00,WUHU21623XXSP,2013-04-13 11:31:00,
2013-04-13 06:36:00,31.6,28.3,29.76,NW,315,5.1,8.7,87,0.00,,,0.00,WUHU21623XXSP,2013-04-13 11:36:00,
2013-04-13 06:41:00,31.6,28.3,29.76,SW,225,3.8,9.4,87,0.00,,,0.00,WUHU21623XXSP,2013-04-13 11:41:00,
2013-04-13 06:46:00,31.6,28.5,29.76,WSW,247,3.1,9.4,88,0.00,,,0.00,WUHU21623XXSP,2013-04-13 11:46:00,
2013-04-13 06:51:00,31.8,28.4,29.76,West,270,3.6,6.3,87,0.00,,,0.00,WUHU21623XXSP,2013-04-13 11:51:00,
2013-04-13 06:56:00,31.8,28.4,29.76,WNW,292,3.8,6.3,87,0.00,,,0.00,WUHU21623XXSP,2013-04-13 11:56:00,
2013-04-13 07:01:00,31.8,28.4,29.77,West,270,6.3,6.7,87,0.00,,,0.00,WUHU21623XXSP,2013-04-13 12:01:00,
2013-04-13 07:06:00,31.8,28.4,29.77,West,270,4.7,6.7,87,0.00,,,0.00,WUHU21623XXSP,2013-04-13 12:06:00,
2013-04-13 07:12:00,32.2,28.5,29.77,West,270,3.4,5.1,86,0.00,,,0.00,WUHU21623XXSP,2013-04-13 12:12:00,
2013-04-13 07:17:00,32.2,28.5,29.77,West,270,1.3,4.7,86,0.00,,,0.00,WUHU21623XXSP,2013-04-13 12:17:00,
2013-04-13 07:22:00,32.2,28.5,29.78,West,270,2.0,5.1,86,0.00,,,0.00,WUHU21623XXSP,2013-04-13 12:22:00,
2013-04-13 07:27:00,32.2,28.2,29.78,WNW,292,0.9,4.9,85,0.00,,,0.00,WUHU21623XXSP,2013-04-13 12:27:00,
2013-04-13 07:32:00,32.4,28.4,29.79,West,270,11.9,11.9,85,0.00,,,0.00,WUHU21623XXSP,2013-04-13 12:32:00,
2013-04-13 07:37:00,32.5,28.2,29.79,WNW,292,4.3,11.9,84,0.00,,,0.00,WUHU21623XXSP,2013-04-13 12:37:00,
2013-04-13 07:42:00,32.5,28.2,29.80,WNW,292,3.1,10.3,84,0.00,,,0.00,WUHU21623XXSP,2013-04-13 12:42:00,
2013-04-13 07:47:00,32.7,28.2,29.79,WNW,292,3.1,6.0,84,0.00,,,0.00,WUHU21623XXSP,2013-04-13 12:47:00,
2013-04-13 07:52:00,32.5,28.2,29.79,WNW,292,1.3,8.1,84,0.00,,,0.00,WUHU21623XXSP,2013-04-13 12:52:00,
2013-04-13 07:57:00,32.7,28.4,29.80,WNW,292,5.4,8.1,84,0.00,,,0.00,WUHU21623XXSP,2013-04-13 12:57:00,
2013-04-13 08:02:00,32.7,28.1,29.79,West,270,2.9,6.7,83,0.00,,,0.00,WUHU21623XXSP,2013-04-13 13:02:00,
2013-04-13 08:07:00,32.7,28.1,29.80,WSW,247,4.7,6.7,83,0.00,,,0.00,WUHU21623XXSP,2013-04-13 13:07:00,
2013-04-13 08:12:00,33.1,28.1,29.80,WNW,292,4.5,5.8,82,0.00,,,0.00,WUHU21623XXSP,2013-04-13 13:12:00,
2013-04-13 08:17:00,33.6,28.3,29.80,NW,315,2.0,4.7,82,0.00,,,0.00,WUHU21623XXSP,2013-04-13 13:17:00,
2013-04-13 08:22:00,34.0,29.0,29.80,West,270,6.7,6.7,82,0.00,,,0.00,WUHU21623XXSP,2013-04-13 13:22:00,
2013-04-13 08:27:00,33.8,28.8,29.80,NW,315,2.9,6.7,81,0.00,,,0.00,WUHU21623XXSP,2013-04-13 13:27:00,
2013-04-13 08:32:00,34.7,29.7,29.80,West,270,4.5,4.5,82,0.00,,,0.00,WUHU21623XXSP,2013-04-13 13:32:00,
2013-04-13 08:37:00,34.5,29.4,29.80,WNW,292,8.1,8.1,81,0.00,,,0.00,WUHU21623XXSP,2013-04-13 13:37:00,
2013-04-13 08:43:00,34.2,28.6,29.80,West,270,7.4,8.1,80,0.00,,,0.00,WUHU21623XXSP,2013-04-13 13:43:00,
2013-04-13 08:48:00,33.8,28.2,29.80,SW,225,6.0,10.5,80,0.00,,,0.00,WUHU21623XXSP,2013-04-13 13:48:00,
2013-04-13 08:53:00,33.8,28.2,29.81,West,270,6.7,10.5,80,0.00,,,0.00,WUHU21623XXSP,2013-04-13 13:53:00,
2013-04-13 08:58:00,34.0,27.7,29.80,WNW,292,6.5,6.7,80,0.00,,,0.00,WUHU21623XXSP,2013-04-13 13:58:00,
2013-04-13 09:03:00,34.0,27.8,29.81,West,270,0.0,6.5,78,0.00,,,0.00,WUHU21623XXSP,2013-04-13 14:03:00,
2013-04-13 09:08:00,34.2,28.3,29.80,WNW,292,3.8,3.8,79,0.00,,,0.00,WUHU21623XXSP,2013-04-13 14:08:00,
2013-04-13 09:13:00,35.2,28.5,29.80,West,270,0.0,7.8,77,0.00,,,0.00,WUHU21623XXSP,2013-04-13 14:13:00,
2013-04-13 09:18:00,35.8,28.6,29.81,NW,315,0.0,10.1,75,0.00,,,0.00,WUHU21623XXSP,2013-04-13 14:18:00,
2013-04-13 09:23:00,35.4,27.9,29.81,WNW,292,7.2,10.1,74,0.00,,,0.00,WUHU21623XXSP,2013-04-13 14:23:00,
2013-04-13 09:28:00,36.1,28.6,29.81,West,270,3.6,11.2,74,0.00,,,0.00,WUHU21623XXSP,2013-04-13 14:28:00,
2013-04-13 09:34:00,35.8,28.3,29.81,WNW,292,5.8,11.2,74,0.00,,,0.00,WUHU21623XXSP,2013-04-13 14:34:00,
2013-04-13 09:39:00,36.1,28.3,29.82,NW,315,4.5,9.6,73,0.00,,,0.00,WUHU21623XXSP,2013-04-13 14:39:00,
2013-04-13 09:44:00,36.5,28.3,29.81,WNW,292,8.1,13.6,72,0.00,,,0.00,WUHU21623XXSP,2013-04-13 14:44:00,
2013-04-13 09:49:00,36.7,28.5,29.81,West,270,11.4,13.6,72,0.00,,,0.00,WUHU21623XXSP,2013-04-13 14:49:00,
2013-04-13 09:54:00,36.3,27.5,29.82,NW,315,8.1,11.4,70,0.00,,,0.00,WUHU21623XXSP,2013-04-13 14:54:00,
2013-04-13 09:59:00,37.2,29.0,29.82,West,270,7.4,8.1,72,0.00,,,0.00,WUHU21623XXSP,2013-04-13 14:59:00,
2013-04-13 10:04:00,37.9,29.1,29.82,NW,315,2.0,7.4,70,0.00,,,0.00,WUHU21623XXSP,2013-04-13 15:04:00,
2013-04-13 10:09:00,37.0,27.5,29.82,West,270,4.9,11.6,68,0.00,,,0.00,WUHU21623XXSP,2013-04-13 15:09:00,
2013-04-13 10:14:00,37.0,28.2,29.82,WNW,292,6.7,11.6,70,0.00,,,0.00,WUHU21623XXSP,2013-04-13 15:14:00,
2013-04-13 10:19:00,36.3,27.5,29.83,West,270,5.4,8.9,70,0.00,,,0.00,WUHU21623XXSP,2013-04-13 15:19:00,
2013-04-13 10:25:00,35.8,27.3,29.82,West,270,10.1,10.1,71,0.00,,,0.00,WUHU21623XXSP,2013-04-13 15:25:00,
2013-04-13 10:30:00,35.8,27.6,29.83,WNW,292,7.4,10.1,72,0.00,,,0.00,WUHU21623XXSP,2013-04-13 15:30:00,
2013-04-13 10:35:00,35.8,27.6,29.83,NW,315,6.5,7.4,72,0.00,,,0.00,WUHU21623XXSP,2013-04-13 15:35:00,
2013-04-13 10:40:00,35.4,27.2,29.83,West,270,4.9,6.5,72,0.00,,,0.00,WUHU21623XXSP,2013-04-13 15:40:00,
2013-04-13 10:45:00,35.2,27.1,29.84,WNW,292,5.8,6.7,72,0.00,,,0.00,WUHU21623XXSP,2013-04-13 15:45:00,
2013-04-13 10:50:00,37.2,30.0,29.84,WNW,292,8.9,8.9,75,0.00,,,0.00,WUHU21623XXSP,2013-04-13 15:50:00,
2013-04-13 10:55:00,37.4,28.6,29.84,WNW,292,8.1,8.9,70,0.00,,,0.00,WUHU21623XXSP,2013-04-13 15:55:00,
2013-04-13 11:00:00,37.0,27.8,29.84,WNW,292,6.5,11.9,69,0.00,,,0.00,WUHU21623XXSP,2013-04-13 16:00:00,
2013-04-13 11:05:00,36.5,27.3,29.84,WSW,247,2.9,11.9,69,0.00,,,0.00,WUHU21623XXSP,2013-04-13 16:05:00,
2013-04-13 11:10:00,37.2,28.2,29.84,West,270,6.3,6.3,70,0.00,,,0.00,WUHU21623XXSP,2013-04-13 16:10:00,
2013-04-13 11:15:00,36.7,27.5,29.84,NNW,337,8.1,8.1,69,0.00,,,0.00,WUHU21623XXSP,2013-04-13 16:15:00,
2013-04-13 11:20:00,36.9,26.9,29.84,WNW,292,3.8,8.1,67,0.00,,,0.00,WUHU21623XXSP,2013-04-13 16:20:00,
2013-04-13 11:25:00,37.8,27.8,29.84,West,270,10.7,10.7,67,0.00,,,0.00,WUHU21623XXSP,2013-04-13 16:25:00,
2013-04-13 11:30:00,37.6,27.2,29.84,West,270,5.4,10.7,66,0.00,,,0.00,WUHU21623XXSP,2013-04-13 16:30:00,
2013-04-13 11:35:00,37.6,27.1,29.84,WNW,292,4.7,10.5,68,0.00,,,0.00,WUHU21623XXSP,2013-04-13 16:35:00,
2013-04-13 11:40:00,37.4,27.4,29.84,WNW,292,9.4,9.4,67,0.00,,,0.00,WUHU21623XXSP,2013-04-13 16:40:00,
2013-04-13 11:45:00,39.0,29.7,29.84,NW,315,5.1,9.4,69,0.00,,,0.00,WUHU21623XXSP,2013-04-13 16:45:00,
2013-04-13 11:50:00,39.7,29.6,29.84,NW,315,1.1,8.1,67,0.00,,,0.00,WUHU21623XXSP,2013-04-13 16:50:00,
2013-04-13 11:55:00,38.8,28.4,29.84,West,270,9.8,9.8,66,0.00,,,0.00,WUHU21623XXSP,2013-04-13 16:55:00,
2013-04-13 12:00:00,38.5,28.4,29.84,WNW,292,6.7,9.8,67,0.00,,,0.00,WUHU21623XXSP,2013-04-13 17:00:00,
2013-04-13 12:05:00,38.5,28.0,29.84,West,270,6.9,8.9,66,0.00,,,0.00,WUHU21623XXSP,2013-04-13 17:05:00,
2013-04-13 12:10:00,37.8,27.4,29.84,WNW,292,5.4,17.0,66,0.00,,,0.00,WUHU21623XXSP,2013-04-13 17:10:00,
2013-04-13 12:16:00,37.2,27.6,29.84,West,270,6.9,17.0,68,0.00,,,0.00,WUHU21623XXSP,2013-04-13 17:16:00,
2013-04-13 12:21:00,36.7,27.1,29.84,West,270,15.2,15.2,68,0.00,,,0.00,WUHU21623XXSP,2013-04-13 17:21:00,
2013-04-13 12:26:00,36.3,27.1,29.85,West,270,8.7,15.2,69,0.00,,,0.00,WUHU21623XXSP,2013-04-13 17:26:00,
2013-04-13 12:32:00,36.3,27.8,29.85,WSW,247,5.8,8.7,71,0.00,,,0.00,WUHU21623XXSP,2013-04-13 17:32:00,
2013-04-13 12:37:00,35.8,27.9,29.85,West,270,13.0,14.3,73,0.00,,,0.00,WUHU21623XXSP,2013-04-13 17:37:00,
2013-04-13 12:42:00,35.4,27.6,29.85,West,270,8.3,14.3,73,0.00,,,0.00,WUHU21623XXSP,2013-04-13 17:42:00,
2013-04-13 12:47:00,36.3,28.1,29.85,West,270,5.6,16.6,72,0.00,,,0.00,WUHU21623XXSP,2013-04-13 17:47:00,
2013-04-13 12:52:00,37.0,28.2,29.85,West,270,11.4,16.6,70,0.00,,,0.00,WUHU21623XXSP,2013-04-13 17:52:00,
2013-04-13 12:57:00,37.2,27.6,29.85,WSW,247,9.4,13.6,68,0.00,,,0.00,WUHU21623XXSP,2013-04-13 17:57:00,
2013-04-13 13:02:00,36.9,28.0,29.85,West,270,10.1,10.3,70,0.00,,,0.00,WUHU21623XXSP,2013-04-13 18:02:00,
2013-04-13 13:08:00,37.0,28.5,29.85,WSW,247,9.8,10.3,71,0.00,,,0.00,WUHU21623XXSP,2013-04-13 18:08:00,
2013-04-13 13:13:00,37.2,28.7,29.85,West,270,10.7,13.6,71,0.00,,,0.00,WUHU21623XXSP,2013-04-13 18:13:00,
2013-04-13 13:18:00,37.0,28.2,29.85,WSW,247,10.7,13.6,70,0.00,,,0.00,WUHU21623XXSP,2013-04-13 18:18:00,
2013-04-13 13:23:00,36.7,27.9,29.85,WSW,247,8.3,14.3,70,0.00,,,0.00,WUHU21623XXSP,2013-04-13 18:23:00,
2013-04-13 13:27:00,36.1,27.5,29.86,WSW,247,15.4,15.4,70,0.00,,,0.00,WUHU21623XXSP,2013-04-13 18:27:00,
2013-04-13 13:32:00,35.4,27.2,29.86,WSW,247,13.6,15.4,72,0.00,,,0.00,WUHU21623XXSP,2013-04-13 18:32:00,
2013-04-13 13:37:00,35.8,27.6,29.86,West,270,7.4,13.6,72,0.00,,,0.00,WUHU21623XXSP,2013-04-13 18:37:00,
2013-04-13 13:42:00,36.3,27.8,29.86,NW,315,8.5,18.8,71,0.00,,,0.00,WUHU21623XXSP,2013-04-13 18:42:00,
2013-04-13 13:47:00,36.1,28.0,29.85,West,270,8.1,18.8,72,0.00,,,0.00,WUHU21623XXSP,2013-04-13 18:47:00,
2013-04-13 13:52:00,36.0,27.8,29.86,WSW,247,7.4,10.7,73,0.00,,,0.00,WUHU21623XXSP,2013-04-13 18:52:00,
2013-04-13 13:57:00,36.5,29.2,29.86,West,270,11.9,11.9,73,0.00,,,0.00,WUHU21623XXSP,2013-04-13 18:57:00,
2013-04-13 14:02:00,36.3,28.8,29.86,WNW,292,6.9,11.9,74,0.00,,,0.00,WUHU21623XXSP,2013-04-13 19:02:00,
2013-04-13 14:07:00,37.2,29.0,29.86,WSW,247,14.3,14.3,74,0.00,,,0.00,WUHU21623XXSP,2013-04-13 19:07:00,
2013-04-13 14:12:00,37.8,29.2,29.85,WSW,247,15.0,15.0,71,0.00,,,0.00,WUHU21623XXSP,2013-04-13 19:12:00,
2013-04-13 14:17:00,37.2,28.7,29.86,West,270,16.6,16.6,71,0.00,,,0.00,WUHU21623XXSP,2013-04-13 19:17:00,
2013-04-13 14:22:00,36.7,28.4,29.87,West,270,7.2,16.6,71,0.00,,,0.00,WUHU21623XXSP,2013-04-13 19:22:00,
2013-04-13 14:27:00,37.0,28.9,29.86,West,270,5.1,7.2,72,0.00,,,0.00,WUHU21623XXSP,2013-04-13 19:27:00,
2013-04-13 14:32:00,37.8,28.5,29.86,West,270,11.2,11.2,69,0.00,,,0.00,WUHU21623XXSP,2013-04-13 19:32:00,
2013-04-13 14:37:00,37.8,28.7,29.86,West,270,11.2,11.2,69,0.00,,,0.00,WUHU21623XXSP,2013-04-13 19:37:00,
2013-04-13 14:42:00,37.4,28.4,29.86,WSW,247,4.5,13.4,71,0.00,,,0.00,WUHU21623XXSP,2013-04-13 19:42:00,
2013-04-13 14:47:00,37.2,28.4,29.86,West,270,6.0,13.4,70,0.00,,,0.00,WUHU21623XXSP,2013-04-13 19:47:00,
2013-04-13 14:52:00,37.0,28.2,29.86,West,270,2.5,10.3,70,0.00,,,0.00,WUHU21623XXSP,2013-04-13 19:52:00,
2013-04-13 14:57:00,37.2,28.4,29.86,WNW,292,0.0,11.0,70,0.00,,,0.00,WUHU21623XXSP,2013-04-13 19:57:00,
2013-04-13 15:03:00,37.6,28.0,29.85,WNW,292,0.0,11.0,69,0.00,,,0.00,WUHU21623XXSP,2013-04-13 20:03:00,
2013-04-13 15:08:00,38.3,28.7,29.85,West,270,1.8,1.8,69,0.00,,,0.00,WUHU21623XXSP,2013-04-13 20:08:00,
2013-04-13 15:13:00,39.0,29.3,29.86,WSW,247,13.9,13.9,68,0.00,,,0.00,WUHU21623XXSP,2013-04-13 20:13:00,
2013-04-13 15:18:00,38.5,28.0,29.86,West,270,11.4,13.9,66,0.00,,,0.00,WUHU21623XXSP,2013-04-13 20:18:00,
2013-04-13 15:22:00,38.3,28.3,29.85,NW,315,4.0,11.4,67,0.00,,,0.00,WUHU21623XXSP,2013-04-13 20:22:00,
2013-04-13 15:28:00,38.5,28.4,29.85,West,270,12.8,12.8,67,0.00,,,0.00,WUHU21623XXSP,2013-04-13 20:28:00,
2013-04-13 15:33:00,37.6,28.0,29.86,West,270,6.0,12.8,68,0.00,,,0.00,WUHU21623XXSP,2013-04-13 20:33:00,
2013-04-13 15:38:00,37.6,28.4,29.85,NW,315,7.8,7.8,69,0.00,,,0.00,WUHU21623XXSP,2013-04-13 20:38:00,
2013-04-13 15:43:00,37.9,28.7,29.85,West,270,4.7,10.7,69,0.00,,,0.00,WUHU21623XXSP,2013-04-13 20:43:00,
2013-04-13 15:48:00,38.3,28.9,29.85,WSW,247,8.5,10.7,69,0.00,,,0.00,WUHU21623XXSP,2013-04-13 20:48:00,
2013-04-13 15:53:00,38.8,29.5,29.85,West,270,3.4,8.5,68,0.00,,,0.00,WUHU21623XXSP,2013-04-13 20:53:00,
2013-04-13 15:58:00,38.8,28.4,29.85,West,270,10.5,10.5,66,0.00,,,0.00,WUHU21623XXSP,2013-04-13 20:58:00,
2013-04-13 16:03:00,38.3,28.3,29.86,SW,225,6.9,10.5,67,0.00,,,0.00,WUHU21623XXSP,2013-04-13 21:03:00,
2013-04-13 16:08:00,38.3,28.3,29.86,West,270,11.9,11.9,67,0.00,,,0.00,WUHU21623XXSP,2013-04-13 21:08:00,
2013-04-13 16:13:00,38.5,28.0,29.86,West,270,6.7,11.9,66,0.00,,,0.00,WUHU21623XXSP,2013-04-13 21:13:00,
2013-04-13 16:18:00,38.1,27.7,29.86,West,270,6.7,7.2,66,0.00,,,0.00,WUHU21623XXSP,2013-04-13 21:18:00,
2013-04-13 16:23:00,37.9,27.9,29.85,West,270,16.1,16.1,67,0.00,,,0.00,WUHU21623XXSP,2013-04-13 21:23:00,
2013-04-13 16:28:00,38.1,28.1,29.85,WSW,247,12.8,16.1,67,0.00,,,0.00,WUHU21623XXSP,2013-04-13 21:28:00,
2013-04-13 16:33:00,37.9,27.9,29.86,WSW,247,11.0,15.7,67,0.00,,,0.00,WUHU21623XXSP,2013-04-13 21:33:00,
2013-04-13 16:38:00,37.8,28.1,29.86,WSW,247,9.4,15.7,68,0.00,,,0.00,WUHU21623XXSP,2013-04-13 21:38:00,
2013-04-13 16:43:00,38.8,28.7,29.86,West,270,8.7,12.3,67,0.00,,,0.00,WUHU21623XXSP,2013-04-13 21:43:00,
2013-04-13 16:48:00,39.4,29.6,29.85,West,270,4.9,8.9,68,0.00,,,0.00,WUHU21623XXSP,2013-04-13 21:48:00,
2013-04-13 16:53:00,39.0,28.5,29.86,WNW,292,9.2,9.2,66,0.00,,,0.00,WUHU21623XXSP,2013-04-13 21:53:00,
2013-04-13 16:58:00,39.0,28.1,29.86,WNW,292,2.2,9.6,65,0.00,,,0.00,WUHU21623XXSP,2013-04-13 21:58:00,
2013-04-13 17:03:00,40.1,29.6,29.86,NW,315,8.9,9.6,66,0.00,,,0.00,WUHU21623XXSP,2013-04-13 22:03:00,
2013-04-13 17:08:00,39.9,28.7,29.86,WNW,292,6.0,8.9,64,0.00,,,0.00,WUHU21623XXSP,2013-04-13 22:08:00,
2013-04-13 17:13:00,40.5,29.2,29.87,WNW,292,4.9,7.2,64,0.00,,,0.00,WUHU21623XXSP,2013-04-13 22:13:00,
2013-04-13 17:18:00,41.2,29.5,29.86,WSW,247,10.3,10.3,63,0.00,,,0.00,WUHU21623XXSP,2013-04-13 22:18:00,
2013-04-13 17:23:00,41.5,29.5,29.87,WNW,292,5.8,10.3,62,0.00,,,0.00,WUHU21623XXSP,2013-04-13 22:23:00,
2013-04-13 17:28:00,40.8,28.4,29.86,WNW,292,2.9,13.0,61,0.00,,,0.00,WUHU21623XXSP,2013-04-13 22:28:00,
2013-04-13 17:33:00,40.6,28.6,29.86,West,270,3.8,13.0,62,0.00,,,0.00,WUHU21623XXSP,2013-04-13 22:33:00,
2013-04-13 17:38:00,39.9,28.3,29.87,NW,315,5.1,5.1,63,0.00,,,0.00,WUHU21623XXSP,2013-04-13 22:38:00,
2013-04-13 17:43:00,40.5,29.0,29.86,NE,45,2.2,10.5,62,0.00,,,0.00,WUHU21623XXSP,2013-04-13 22:43:00,
2013-04-13 17:48:00,39.9,27.5,29.86,WNW,292,1.6,10.5,61,0.00,,,0.00,WUHU21623XXSP,2013-04-13 22:48:00,
2013-04-13 17:53:00,39.7,27.7,29.87,WNW,292,6.3,6.3,62,0.00,,,0.00,WUHU21623XXSP,2013-04-13 22:53:00,
2013-04-13 17:58:00,39.6,27.9,29.87,West,270,5.8,6.3,63,0.00,,,0.00,WUHU21623XXSP,2013-04-13 22:58:00,
2013-04-13 18:03:00,39.6,27.5,29.86,West,270,3.4,9.2,62,0.00,,,0.00,WUHU21623XXSP,2013-04-13 23:03:00,
2013-04-13 18:08:00,39.4,27.7,29.87,WNW,292,4.5,9.2,63,0.00,,,0.00,WUHU21623XXSP,2013-04-13 23:08:00,
2013-04-13 18:13:00,40.3,28.6,29.87,North,0,0.0,6.3,63,0.00,,,0.00,WUHU21623XXSP,2013-04-13 23:13:00,
2013-04-13 18:18:00,40.1,28.1,29.87,North,0,3.6,5.8,62,0.00,,,0.00,WUHU21623XXSP,2013-04-13 23:18:00,
2013-04-13 18:23:00,39.0,27.0,29.87,WNW,292,0.0,3.6,62,0.00,,,0.00,WUHU21623XXSP,2013-04-13 23:23:00,
2013-04-13 18:28:00,38.8,27.2,29.88,NNE,22,0.0,2.9,63,0.00,,,0.00,WUHU21623XXSP,2013-04-13 23:28:00,
2013-04-13 18:33:00,38.5,26.9,29.88,West,270,0.0,2.0,63,0.00,,,0.00,WUHU21623XXSP,2013-04-13 23:33:00,
2013-04-13 18:38:00,38.3,27.1,29.88,WNW,292,5.6,5.6,64,0.00,,,0.00,WUHU21623XXSP,2013-04-13 23:38:00,
2013-04-13 18:43:00,38.5,27.3,29.88,NW,315,1.6,5.6,64,0.00,,,0.00,WUHU21623XXSP,2013-04-13 23:43:00,
2013-04-13 18:48:00,38.3,27.1,29.88,NW,315,0.0,1.6,64,0.00,,,0.00,WUHU21623XXSP,2013-04-13 23:48:00,
2013-04-13 18:53:00,37.9,26.8,29.88,WNW,292,1.6,1.6,64,0.00,,,0.00,WUHU21623XXSP,2013-04-13 23:53:00,
2013-04-13 18:58:00,38.1,27.3,29.88,WNW,292,0.0,5.8,65,0.00,,,0.00,WUHU21623XXSP,2013-04-13 23:58:00,
2013-04-13 19:03:00,37.9,27.2,29.88,ENE,67,0.0,5.8,65,0.00,,,0.00,WUHU21623XXSP,2013-04-14 00:03:00,
2013-04-13 19:08:00,37.0,26.3,29.88,West,270,0.0,2.7,65,0.00,,,0.00,WUHU21623XXSP,2013-04-14 00:08:00,
2013-04-13 19:13:00,36.7,26.4,29.88,WNW,292,0.0,2.7,66,0.00,,,0.00,WUHU21623XXSP,2013-04-14 00:13:00,
2013-04-13 19:18:00,36.5,26.2,29.88,NW,315,0.0,2.0,66,0.00,,,0.00,WUHU21623XXSP,2013-04-14 00:18:00,
2013-04-13 19:23:00,36.0,26.2,29.88,NW,315,0.0,0.0,67,0.00,,,0.00,WUHU21623XXSP,2013-04-14 00:23:00,
2013-04-13 19:28:00,35.8,25.9,29.88,NNE,22,0.0,0.0,67,0.00,,,0.00,WUHU21623XXSP,2013-04-14 00:28:00,
2013-04-13 19:33:00,35.4,25.5,29.88,NW,315,0.0,0.0,68,0.00,,,0.00,WUHU21623XXSP,2013-04-14 00:33:00,
2013-04-13 19:38:00,35.2,25.9,29.88,West,270,0.0,0.0,68,0.00,,,0.00,WUHU21623XXSP,2013-04-14 00:38:00,
2013-04-13 19:43:00,34.9,25.7,29.88,North,0,0.0,0.0,69,0.00,,,0.00,WUHU21623XXSP,2013-04-14 00:43:00,
2013-04-13 19:48:00,34.5,25.3,29.89,North,0,0.0,0.0,69,0.00,,,0.00,WUHU21623XXSP,2013-04-14 00:48:00,
2013-04-13 19:53:00,34.3,25.5,29.88,NNE,22,0.0,0.0,70,0.00,,,0.00,WUHU21623XXSP,2013-04-14 00:53:00,
2013-04-13 19:58:00,34.0,25.2,29.88,North,0,0.0,0.0,70,0.00,,,0.00,WUHU21623XXSP,2013-04-14 00:58:00,
2013-04-13 20:03:00,33.6,24.8,29.89,North,0,0.0,0.0,70,0.00,,,0.00,WUHU21623XXSP,2013-04-14 01:03:00,
2013-04-13 20:08:00,33.4,25.0,29.88,North,0,0.0,0.0,70,0.00,,,0.00,WUHU21623XXSP,2013-04-14 01:08:00,
2013-04-13 20:13:00,33.1,24.7,29.88,North,0,0.0,0.0,71,0.00,,,0.00,WUHU21623XXSP,2013-04-14 01:13:00,
2013-04-13 20:19:00,32.5,24.5,29.88,North,0,0.0,0.0,72,0.00,,,0.00,WUHU21623XXSP,2013-04-14 01:19:00,
2013-04-13 20:24:00,32.2,24.2,29.88,North,0,0.0,0.0,72,0.00,,,0.00,WUHU21623XXSP,2013-04-14 01:24:00,
2013-04-13 20:29:00,31.8,24.2,29.89,NNE,22,0.0,0.0,73,0.00,,,0.00,WUHU21623XXSP,2013-04-14 01:29:00,
2013-04-13 20:34:00,31.3,23.6,29.89,NNE,22,0.0,0.0,73,0.00,,,0.00,WUHU21623XXSP,2013-04-14 01:34:00,
2013-04-13 20:39:00,30.9,23.6,29.89,NNE,22,0.0,0.0,74,0.00,,,0.00,WUHU21623XXSP,2013-04-14 01:39:00,
2013-04-13 20:44:00,30.7,23.7,29.90,NNE,22,0.0,0.0,75,0.00,,,0.00,WUHU21623XXSP,2013-04-14 01:44:00,
2013-04-13 20:49:00,30.6,23.5,29.89,NNE,22,0.0,0.0,75,0.00,,,0.00,WUHU21623XXSP,2013-04-14 01:49:00,
2013-04-13 20:54:00,30.6,23.5,29.89,NNE,22,0.0,0.0,75,0.00,,,0.00,WUHU21623XXSP,2013-04-14 01:54:00,
2013-04-13 20:59:00,30.7,24.0,29.89,NNE,22,0.0,0.0,76,0.00,,,0.00,WUHU21623XXSP,2013-04-14 01:59:00,
2013-04-13 21:04:00,30.6,23.9,29.90,NNE,22,0.0,0.0,76,0.00,,,0.00,WUHU21623XXSP,2013-04-14 02:04:00,
2013-04-13 21:09:00,30.4,23.7,29.89,NNE,22,0.0,0.0,76,0.00,,,0.00,WUHU21623XXSP,2013-04-14 02:09:00,
2013-04-13 21:14:00,30.0,23.6,29.90,NNE,22,0.0,0.0,77,0.00,,,0.00,WUHU21623XXSP,2013-04-14 02:14:00,
2013-04-13 21:19:00,29.1,23.1,29.90,NNE,22,0.0,0.0,78,0.00,,,0.00,WUHU21623XXSP,2013-04-14 02:19:00,
2013-04-13 21:24:00,28.9,23.2,29.90,NNE,22,0.0,0.0,79,0.00,,,0.00,WUHU21623XXSP,2013-04-14 02:24:00,
2013-04-13 21:29:00,28.9,23.5,29.90,West,270,0.0,0.0,80,0.00,,,0.00,WUHU21623XXSP,2013-04-14 02:29:00,
2013-04-13 21:34:00,28.9,23.5,29.91,WSW,247,0.0,0.0,80,0.00,,,0.00,WUHU21623XXSP,2013-04-14 02:34:00,
2013-04-13 21:39:00,28.8,23.6,29.91,WSW,247,0.0,0.0,81,0.00,,,0.00,WUHU21623XXSP,2013-04-14 02:39:00,
2013-04-13 21:44:00,28.9,23.6,29.91,WSW,247,0.0,0.0,82,0.00,,,0.00,WUHU21623XXSP,2013-04-14 02:44:00,
2013-04-13 21:49:00,28.8,24.1,29.92,WSW,247,0.0,0.0,83,0.00,,,0.00,WUHU21623XXSP,2013-04-14 02:49:00,
2013-04-13 21:54:00,28.9,24.4,29.92,SW,225,0.0,0.0,83,0.00,,,0.00,WUHU21623XXSP,2013-04-14 02:54:00,
2013-04-13 21:59:00,29.1,24.6,29.92,NNE,22,0.0,0.0,83,0.00,,,0.00,WUHU21623XXSP,2013-04-14 02:59:00,
2013-04-13 22:04:00,29.1,24.6,29.92,NW,315,0.0,0.0,83,0.00,,,0.00,WUHU21623XXSP,2013-04-14 03:04:00,
2013-04-13 22:09:00,29.1,24.6,29.92,NW,315,0.0,0.0,83,0.00,,,0.00,WUHU21623XXSP,2013-04-14 03:09:00,
2013-04-13 22:14:00,29.1,24.6,29.92,NW,315,0.0,0.0,83,0.00,,,0.00,WUHU21623XXSP,2013-04-14 03:14:00,
2013-04-13 22:19:00,29.1,24.9,29.92,NNE,22,0.0,0.0,84,0.00,,,0.00,WUHU21623XXSP,2013-04-14 03:19:00,
2013-04-13 22:24:00,28.9,24.7,29.92,NE,45,0.0,0.0,84,0.00,,,0.00,WUHU21623XXSP,2013-04-14 03:24:00,
2013-04-13 22:29:00,28.6,24.3,29.92,NE,45,0.0,0.0,84,0.00,,,0.00,WUHU21623XXSP,2013-04-14 03:29:00,
2013-04-13 22:34:00,28.4,24.4,29.92,South,180,0.0,0.0,85,0.00,,,0.00,WUHU21623XXSP,2013-04-14 03:34:00,
2013-04-13 22:39:00,28.6,24.4,29.92,SW,225,0.0,0.0,85,0.00,,,0.00,WUHU21623XXSP,2013-04-14 03:39:00,
2013-04-13 22:44:00,28.6,24.6,29.92,WNW,292,0.0,0.0,85,0.00,,,0.00,WUHU21623XXSP,2013-04-14 03:44:00,
2013-04-13 22:49:00,28.6,24.6,29.92,NNW,337,0.0,0.0,85,0.00,,,0.00,WUHU21623XXSP,2013-04-14 03:49:00,
2013-04-13 22:54:00,28.6,24.9,29.93,NNW,337,0.0,0.0,86,0.00,,,0.00,WUHU21623XXSP,2013-04-14 03:54:00,
2013-04-13 22:59:00,28.6,24.9,29.92,NNW,337,0.0,0.0,86,0.00,,,0.00,WUHU21623XXSP,2013-04-14 03:59:00,
2013-04-13 23:00:00,28.6,24.9,29.92,NNW,337,0.0,0.0,86,0.00,,,0.00,WUHU21623XXSP,2013-04-14 04:00:00,
2013-04-13 23:05:00,28.6,24.9,29.93,NNW,337,0.0,0.0,86,0.00,,,0.00,WUHU21623XXSP,2013-04-14 04:05:00,
2013-04-13 23:10:00,28.6,24.9,29.93,NNW,337,0.0,0.0,86,0.00,,,0.00,WUHU21623XXSP,2013-04-14 04:10:00,
2013-04-13 23:15:00,28.8,25.4,29.93,NW,315,0.0,0.0,87,0.00,,,0.00,WUHU21623XXSP,2013-04-14 04:15:00,
2013-04-13 23:20:00,29.1,25.3,29.93,NW,315,0.0,0.0,86,0.00,,,0.00,WUHU21623XXSP,2013-04-14 04:20:00,
2013-04-13 23:25:00,29.1,25.7,29.93,NNE,22,0.0,0.0,87,0.00,,,0.00,WUHU21623XXSP,2013-04-14 04:25:00,
2013-04-13 23:30:00,29.1,25.7,29.93,NNE,22,0.0,0.0,87,0.00,,,0.00,WUHU21623XXSP,2013-04-14 04:30:00,
2013-04-13 23:35:00,29.1,25.7,29.93,NNE,22,0.0,0.0,87,0.00,,,0.00,WUHU21623XXSP,2013-04-14 04:35:00,
2013-04-13 23:40:00,29.1,25.4,29.93,NNE,22,0.0,0.0,87,0.00,,,0.00,WUHU21623XXSP,2013-04-14 04:40:00,
2013-04-13 23:45:00,29.5,25.9,29.93,NNE,22,0.0,0.0,87,0.00,,,0.00,WUHU21623XXSP,2013-04-14 04:45:00,
2013-04-13 23:50:00,29.8,26.5,29.93,WNW,292,0.0,0.0,87,0.00,,,0.00,WUHU21623XXSP,2013-04-14 04:50:00,
2013-04-13 23:55:00,29.8,26.5,29.94,WNW,292,0.0,0.0,87,0.00,,,0.00,WUHU21623XXSP,2013-04-14 04:55:00,